Other Surface Observations
Issued by NWS Charleston, SC

Current Version | Previous Version | Text Only | Print | Product List | Glossary On
Versions: 1 2 3 4 5 6 7 8 9 10 11 12 13 14 15 16 17 18 19 20 21 22 23 24 25 26 27 28 29 30 31 32 33 34 35 36 37 38 39 40 41 42 43 44 45 46 47 48 49 50
000
SXUS52 KCHS 252328
OSOCHS

MARINE OBSERVATIONS
NATIONAL WEATHER SERVICE CHARLESTON SC
700 PM EDT WED MAY 25 2016

...DOWNTOWN CHARLESTON AND HARBOR...

CITY           SKY/WX    TMP DP  RH WIND       PRES   REMARKS
WATERFRONT PRK   N/A     80  65  59 S10       30.15F

...LAKE MOULTRIE...

CITY           SKY/WX    TMP DP  RH WIND       PRES   REMARKS
PINOPOLIS        N/A     97  61  30 CALM      30.09R HX  97

...LAKE AND SUPPLEMENTAL COASTAL OBSERVATIONS...

STATION/POSITION TIME  TEMP    WIND        PRES    WAVE   SWELL
                       AIR SEA DIR/SP/G            HT/PER HT/PER/DIR
                 (UTC) (F)     (DEG/KT/KT) (MB)    (FT/S) (FT/S/D)
FORT PULASKI     2300      77              1022.2F
SAPELO ISLAND    2300   82     160/  8     1022.0S
WINYAH BAY       2200   81     200/ 10     1021.0
LAKE MURRAY      2300   89        CALM     1020.3F
ACE BASIN NERRS  2200   82        CALM     1022.0F


...C-MAN AND BUOY OBSERVATIONS...

STATION/POSITION TIME  TEMP    WIND        PRES    WAVE   SWELL
                       AIR SEA DIR/SP/G            HT/PER HT/PER/DIR
                 (UTC) (F)     (DEG/KT/KT) (MB)    (FT/S) (FT/S/D)
BUOY 41004       2250   78 79  180/  6/  8 1022.1F   2/ 8   2/ 8
BUOY 41008       2250   78 78  140/  8/ 10 1022.1F   2/ 9   2/ 70/ 9
FOLLY BEACH CMAN 2300   77     190/ 11/ 12 1022.2F
CAPERS NS BUOY   2308   77 76  200/ 12/ 16 1021.7F
FRIPP NS BUOY    2308   77 78  190/ 12/ 14 1021.3F
5E ST. MARYS GA  2221      80                N/A     2/ 9


STATION/POSITION TIME  TEMP    WIND        PRES    WAVE   SWELL
                       AIR SEA DIR/SP/G            HT/PER HT/PER/DIR
                 (UTC) (F)     (DEG/KT/KT) (MB)    (FT/S) (FT/S/D)
FRYING PAN BUOY  2300   78 77  180/ 10/ 12 1022.0F
BUOY 41025       2250   74 73  220/ 10/ 10 1022.1F   2/ 8   2/130/ 8
CAPE LOOKOUT NC  2300   75     210/  8/ 11 1021.8F
BUOY 41002       2250   75 79   50/  8/ 10 1022.8F   2/ 7   2/ 70/ 7
BUOY 41010       2220   76 78   60/ 12/ 14 1022.1S
ST AUGUSTINE FL  2300   78 81  110/  8/  9 1023.1F

$$




USA.gov is the U.S. government's official web portal to all federal, state and local government web resources and services.